Weather History for KAQP - July, 2013

Change the Weather History Date:

Saturday, July 27, 2013

  Actual Average Record
Temperature  
Mean Temperature 60 °F -  
Max Temperature 71 °F 79 °F 91 °F (2010)
Min Temperature 48 °F 59 °F 44 °F (2005)
Degree Days  
Heating Degree Days 6    
Growing Degree Days 10 (Base 50)    
Moisture  
Dew Point 45 °F    
Average Humidity 60    
Maximum Humidity 93    
Minimum Humidity 31    
Precipitation  
Precipitation 0.00 in - - ()
Sea Level Pressure  
Sea Level Pressure 30.09 in    
Wind  
Wind Speed 8 mph (NNW)    
Max Wind Speed 20 mph    
Max Gust Speed 25 mph    
Visibility 10 miles    
Events      
Averages and records for this station are not official NWS values.
T = Trace of Precipitation, MM = Missing Value Source: NWS Daily Summary

Daily Weather History Graph

Daily Weather History Graph

Search for Another Location

Airport or City:

Trip Planner

Search our weather history database for the weather conditions in past years. The results will help you decide how hot, cold, wet, or windy it might be!

Date:

Astronomy

Jul. 27, 2013 Rise Set
Actual Time 6:03 AM CDT 8:56 PM CDT
Civil Twilight 5:28 AM CDT 9:31 PM CDT
Nautical Twilight 4:44 AM CDT 10:15 PM CDT
Astronomical Twilight 3:52 AM CDT 11:06 PM CDT
Moon 11:24 PM CDT (7/27) 12:04 PM CDT (7/27)
Length of Visible Light 16h 02m
Length of Day
14h 53m
Waning Gibbous, 70% of the Moon is Illuminated
Jul 27
Waning Gibbous
Jul 29
Last Quarter
Aug 6
New
Aug 14
First Quarter
Aug 20
Full

Hourly Weather History & Observations

Time (CDT) Temp. Dew Point Humidity Pressure Visibility Wind Dir Wind Speed Gust Speed Precip Events Conditions
12:13 AM 57.2 °F 50.0 °F 77% 30.14 in 10.0 mi ENE 4.6 mph - N/A   Scattered Clouds
12:33 AM 55.4 °F 48.2 °F 77% 30.14 in 10.0 mi NE 4.6 mph - N/A   Clear
12:53 AM 53.6 °F 48.2 °F 82% 30.14 in 10.0 mi NE 4.6 mph - N/A   Clear
1:13 AM 53.6 °F 48.2 °F 82% 30.14 in 10.0 mi Calm Calm - N/A   Clear
1:33 AM 51.8 °F 46.4 °F 82% 30.14 in 10.0 mi Calm Calm - N/A   Scattered Clouds
1:53 AM 51.8 °F 48.2 °F 88% 30.14 in 10.0 mi Calm Calm - N/A   Scattered Clouds
2:14 AM 51.8 °F 48.2 °F 88% 30.14 in 10.0 mi Calm Calm - N/A   Mostly Cloudy
2:34 AM 53.6 °F 48.2 °F 82% 30.14 in 10.0 mi NNW 4.6 mph - N/A   Overcast
2:53 AM 53.6 °F 48.2 °F 82% 30.13 in 10.0 mi Calm Calm - N/A   Mostly Cloudy
3:13 AM 51.8 °F 48.2 °F 88% 30.14 in 10.0 mi NNW 3.5 mph - N/A   Mostly Cloudy
3:33 AM 53.6 °F 48.2 °F 82% 30.14 in 10.0 mi North 4.6 mph - N/A   Mostly Cloudy
3:53 AM 53.6 °F 48.2 °F 82% 30.14 in 10.0 mi North 3.5 mph - N/A   Overcast
4:13 AM 51.8 °F 46.4 °F 82% 30.14 in 10.0 mi Calm Calm - N/A   Mostly Cloudy
4:33 AM 51.8 °F 48.2 °F 88% 30.14 in 10.0 mi Calm Calm - N/A   Overcast
4:53 AM 53.6 °F 48.2 °F 82% 30.14 in 10.0 mi NW 3.5 mph - N/A   Overcast
5:13 AM 53.6 °F 48.2 °F 82% 30.14 in 10.0 mi NNW 5.8 mph - N/A   Overcast
5:33 AM 51.8 °F 48.2 °F 88% 30.14 in 10.0 mi NNW 3.5 mph - N/A   Scattered Clouds
5:53 AM 50.0 °F 46.4 °F 87% 30.14 in 10.0 mi NW 3.5 mph - N/A   Scattered Clouds
6:13 AM 50.0 °F 46.4 °F 87% 30.15 in 10.0 mi NW 8.1 mph - N/A   Scattered Clouds
6:33 AM 50.0 °F 46.4 °F 87% 30.15 in 10.0 mi NW 5.8 mph - N/A   Scattered Clouds
6:53 AM 48.2 °F 46.4 °F 93% 30.15 in 10.0 mi NNW 6.9 mph - N/A   Clear
7:13 AM 50.0 °F 46.4 °F 87% 30.15 in 10.0 mi NNW 8.1 mph - N/A   Scattered Clouds
7:33 AM 51.8 °F 46.4 °F 82% 30.15 in 10.0 mi North 9.2 mph - N/A   Scattered Clouds
7:47 AM 53.6 °F 46.4 °F 77% 30.15 in 10.0 mi North 10.4 mph - N/A   Scattered Clouds
8:13 AM 55.4 °F 46.4 °F 72% 30.15 in 10.0 mi North 11.5 mph - N/A   Clear
8:34 AM 55.4 °F 46.4 °F 72% 30.16 in 10.0 mi North 10.4 mph - N/A   Clear
8:53 AM 57.2 °F 44.6 °F 63% 30.16 in 10.0 mi North 11.5 mph 17.3 mph N/A   Clear
9:13 AM 59.0 °F 44.6 °F 59% 30.15 in 10.0 mi NNW 11.5 mph - N/A   Clear
9:33 AM 60.8 °F 44.6 °F 55% 30.14 in 10.0 mi NNW 13.8 mph - N/A   Clear
9:53 AM 60.8 °F 44.6 °F 55% 30.13 in 10.0 mi NNW 13.8 mph - N/A   Clear
10:13 AM 62.6 °F 44.6 °F 52% 30.13 in 10.0 mi NNW 13.8 mph - N/A   Clear
10:33 AM 62.6 °F 44.6 °F 52% 30.12 in 10.0 mi NW 15.0 mph 19.6 mph N/A   Clear
10:53 AM 64.4 °F 44.6 °F 49% 30.11 in 10.0 mi North 17.3 mph 24.2 mph N/A   Clear
11:13 AM 64.4 °F 42.8 °F 45% 30.11 in 10.0 mi NNW 17.3 mph 24.2 mph N/A   Clear
11:34 AM 66.2 °F 44.6 °F 46% 30.10 in 10.0 mi NNW 17.3 mph 20.7 mph N/A   Scattered Clouds
11:54 AM 66.2 °F 41.0 °F 40% 30.10 in 10.0 mi NNW 17.3 mph 24.2 mph N/A   Scattered Clouds
12:13 PM 66.2 °F 41.0 °F 40% 30.09 in 10.0 mi North 17.3 mph - N/A   Mostly Cloudy
12:33 PM 66.2 °F 41.0 °F 40% 30.09 in 10.0 mi North 16.1 mph 23.0 mph N/A   Mostly Cloudy
12:54 PM 68.0 °F 41.0 °F 37% 30.08 in 10.0 mi North 19.6 mph - N/A   Mostly Cloudy
1:13 PM 69.8 °F 41.0 °F 35% 30.07 in 10.0 mi NNW 15.0 mph 21.9 mph N/A   Mostly Cloudy
1:33 PM 69.8 °F 42.8 °F 38% 30.07 in 10.0 mi NNW 16.1 mph 21.9 mph N/A   Mostly Cloudy
1:54 PM 68.0 °F 41.0 °F 37% 30.06 in 10.0 mi NNW 16.1 mph - N/A   Mostly Cloudy
2:14 PM 69.8 °F 41.0 °F 35% 30.06 in 10.0 mi NNW 15.0 mph 19.6 mph N/A   Scattered Clouds
2:33 PM 71.6 °F 41.0 °F 33% 30.05 in 10.0 mi NNW 13.8 mph 21.9 mph N/A   Scattered Clouds
2:54 PM 69.8 °F 42.8 °F 38% 30.05 in 10.0 mi NNW 16.1 mph 20.7 mph N/A   Mostly Cloudy
3:13 PM 69.8 °F 42.8 °F 38% 30.05 in 10.0 mi NNW 18.4 mph 21.9 mph N/A   Mostly Cloudy
3:33 PM 69.8 °F 42.8 °F 38% 30.04 in 10.0 mi NNW 15.0 mph - N/A   Mostly Cloudy
3:53 PM 71.6 °F 42.8 °F 35% 30.04 in 10.0 mi NW 19.6 mph 24.2 mph N/A   Scattered Clouds
4:14 PM 71.6 °F 42.8 °F 35% 30.03 in 10.0 mi NW 17.3 mph 24.2 mph N/A   Mostly Cloudy
4:33 PM 71.6 °F 39.2 °F 31% 30.02 in 10.0 mi NNW 13.8 mph 23.0 mph N/A   Scattered Clouds
4:53 PM 69.8 °F 39.2 °F 33% 30.02 in 10.0 mi NNW 15.0 mph 25.3 mph N/A   Scattered Clouds
5:13 PM 71.6 °F 39.2 °F 31% 30.02 in 10.0 mi NNW 17.3 mph 21.9 mph N/A   Clear
5:33 PM 71.6 °F 39.2 °F 31% 30.01 in 10.0 mi NNW 16.1 mph 23.0 mph N/A   Clear
5:53 PM 69.8 °F 39.2 °F 33% 30.02 in 10.0 mi NNW 18.4 mph - N/A   Clear
6:14 PM 71.6 °F 39.2 °F 31% 30.01 in 10.0 mi NNW 16.1 mph 21.9 mph N/A   Scattered Clouds
6:33 PM 71.6 °F 41.0 °F 33% 30.01 in 10.0 mi NNW 13.8 mph - N/A   Mostly Cloudy
6:53 PM 69.8 °F 41.0 °F 35% 30.00 in 10.0 mi NNW 15.0 mph - N/A   Scattered Clouds
7:13 PM 68.0 °F 42.8 °F 40% 30.01 in 10.0 mi North 12.7 mph 19.6 mph N/A   Clear
7:33 PM 69.8 °F 42.8 °F 38% 30.00 in 10.0 mi NNW 13.8 mph 24.2 mph N/A   Clear
7:53 PM 68.0 °F 42.8 °F 40% 30.01 in 10.0 mi NNW 12.7 mph 20.7 mph N/A   Mostly Cloudy
8:13 PM 66.2 °F 44.6 °F 46% 30.01 in 10.0 mi NNW 9.2 mph - N/A   Scattered Clouds
8:34 PM 64.4 °F 44.6 °F 49% 30.00 in 10.0 mi NNW 6.9 mph - N/A   Clear
8:53 PM 60.8 °F 46.4 °F 59% 30.00 in 10.0 mi NNW 5.8 mph - N/A   Clear
9:13 PM 59.0 °F 46.4 °F 63% 30.00 in 10.0 mi NW 6.9 mph - N/A   Clear
9:33 PM 57.2 °F 46.4 °F 67% 30.01 in 10.0 mi NW 6.9 mph - N/A   Clear
9:54 PM 55.4 °F 46.4 °F 72% 30.02 in 10.0 mi NW 8.1 mph - N/A   Clear
10:13 PM 55.4 °F 46.4 °F 72% 30.02 in 10.0 mi NW 4.6 mph - N/A   Clear
10:33 PM 53.6 °F 48.2 °F 82% 30.02 in 10.0 mi NW 4.6 mph - N/A   Scattered Clouds
10:53 PM 57.2 °F 48.2 °F 72% 30.04 in 10.0 mi North 6.9 mph - N/A   Mostly Cloudy
11:13 PM 57.2 °F 46.4 °F 67% 30.04 in 10.0 mi North 5.8 mph - N/A   Scattered Clouds
11:33 PM 53.6 °F 46.4 °F 77% 30.05 in 10.0 mi NNE 4.6 mph - N/A   Clear
11:53 PM 53.6 °F 46.4 °F 77% 30.04 in 10.0 mi NNE 3.5 mph - N/A   Clear